Home > Weather > Kielce > Past weeks

Flag for Poland Past Weather in Kielce, Poland — Yesterday and Last 2 Weeks

Now
81 °F

Partly sunny.


Feels Like: 82 °F
Forecast: 62 / 85 °F
Wind: 1 mph from North

Location: Kielce

Current Time: Jul 1, 2016 at 5:18:45 PM

Latest Report: Jul 1, 2016 at 4:00 PM


Visibility: 19 mi

Pressure: 30.01 "Hg

Humidity: 50%

Dew Point: 61 °F

Location of KielceLocation

Past Weather in Kielce — Graph

°F

Kielce Temperature Yesterday

Maximum temperature yesterday: 86 °F (at 1:00 PM)
Minimum temperature yesterday: 56 °F (at 4:00 AM)
Average temperature yesterday: 72 °F

High & Low Weather Summary for the Past Weeks

 TemperatureHumidityPressure
High93 °F (Jun 25, 4:00 PM)100% (Jun 21, 5:00 AM)30.30 "Hg (Jun 21, 5:00 AM)
Low48 °F (Jun 18, 4:00 AM)32% (Jun 19, 2:00 PM)29.47 "Hg (Jun 17, 11:00 AM)
Average70 °F68%30.02 "Hg
* Reported Jun 16 4:00 PM — Jul 1 4:00 PM, Kielce, Weather by CustomWeather, © 2016

Note: Actual official high and low records may vary slightly from our data, if they occured in-between our weather recording intervals... More about our weather records

Advertising

Kielce Weather History for the Previous 24 Hours

Scroll right to see more
 ConditionsComfort  
Time TempWeatherWind HumidityBarometerVisibility
4:00 PM
Fri, Jul 1
81 °FPartly sunny.1 mph50%30.01 "Hg19 mi
3:00 PM80 °FOvercast.1 mph50%30.01 "Hg22 mi
2:00 PMN/APassing clouds.53 mphN/A29.87 "Hg0 mi
1:00 PM80 °FPartly sunny.2 mph55%30.02 "Hg19 mi
12:00 PM76 °FOvercast.1 mph63%30.04 "Hg15 mi
11:00 AM74 °FOvercast.1 mph64%30.05 "Hg16 mi
10:00 AM73 °FOvercast.2 mph73%30.04 "Hg19 mi
9:00 AM69 °FLow clouds.1 mph87%30.05 "Hg13 mi
8:00 AM65 °FFog.1 mph92%30.05 "Hg2 mi
7:00 AM63 °FFog.1 mph98%30.04 "Hg1 mi
6:00 AM62 °FFog.1 mph98%30.03 "Hg2 mi
5:00 AM62 °FOvercast.1 mph98%30.03 "Hg2 mi
4:00 AM62 °FFog.1 mph97%30.04 "Hg3 mi
3:00 AM62 °FFog.No wind97%30.02 "Hg4 mi
2:00 AM62 °FOvercast.1 mph96%30.01 "Hg9 mi
1:00 AM62 °FLight rain. Overcast.3 mph97%30.00 "Hg7 mi
12:00 AM62 °FThunderstorms. Overcast.2 mph94%30.01 "Hg28 mi
11:00 PM
Thu, Jun 30
62 °FThundershowers. Overcast.5 mph94%29.95 "Hg1 mi
10:00 PM67 °FThundershowers. Overcast.5 mph79%30.03 "Hg1 mi
9:00 PM69 °FOvercast.8 mph72%30.01 "Hg25 mi
8:00 PM80 °FOvercast.2 mph48%29.92 "Hg25 mi
7:00 PM82 °FOvercast.1 mph42%29.91 "Hg25 mi
6:00 PM86 °FOvercast.3 mph36%29.90 "Hg22 mi
5:00 PM86 °FPartly sunny.3 mph35%29.91 "Hg25 mi
Weather by CustomWeather, © 2016

See weather overviewHow to use our weather pages